TimeEDT,TemperatureF,Dew PointF,Humidity,Sea Level PressureIn,VisibilityMPH,Wind Direction,Wind SpeedMPH,Gust SpeedMPH,PrecipitationIn,Events,Conditions,WindDirDegrees,DateUTC
12:15 AM,37.4,37.4,100,30.11,10.0,Calm,Calm,-,N/A,,Clear,0,2013-10-24 04:15:00
12:35 AM,37.4,35.6,93,30.12,10.0,Calm,Calm,-,N/A,,Clear,0,2013-10-24 04:35:00
12:55 AM,37.4,35.6,93,30.11,10.0,Calm,Calm,-,N/A,,Clear,0,2013-10-24 04:55:00
1:15 AM,37.4,37.4,100,30.11,10.0,Calm,Calm,-,N/A,,Clear,0,2013-10-24 05:15:00
1:35 AM,37.4,37.4,100,30.12,10.0,Calm,Calm,-,N/A,,Clear,0,2013-10-24 05:35:00
1:55 AM,37.4,35.6,93,30.13,10.0,Calm,Calm,-,N/A,,Clear,0,2013-10-24 05:55:00
2:15 AM,37.4,35.6,93,30.13,10.0,Calm,Calm,-,N/A,,Clear,0,2013-10-24 06:15:00
2:35 AM,35.6,35.6,100,30.14,10.0,Calm,Calm,-,N/A,,Clear,0,2013-10-24 06:35:00
2:55 AM,35.6,35.6,100,30.14,10.0,Calm,Calm,-,N/A,,Clear,0,2013-10-24 06:55:00
3:15 AM,35.6,35.6,100,30.14,10.0,Calm,Calm,-,N/A,,Clear,0,2013-10-24 07:15:00
3:35 AM,35.6,35.6,100,30.14,10.0,Calm,Calm,-,N/A,,Clear,0,2013-10-24 07:35:00
3:55 AM,35.6,35.6,100,30.15,10.0,Calm,Calm,-,N/A,,Clear,0,2013-10-24 07:55:00
4:15 AM,35.6,35.6,100,30.14,10.0,Calm,Calm,-,N/A,,Clear,0,2013-10-24 08:15:00
4:35 AM,35.6,33.8,93,30.15,10.0,Calm,Calm,-,N/A,,Clear,0,2013-10-24 08:35:00
4:55 AM,35.6,35.6,100,30.15,10.0,Calm,Calm,-,N/A,,Clear,0,2013-10-24 08:55:00
5:15 AM,35.6,33.8,93,30.16,10.0,Calm,Calm,-,N/A,,Clear,0,2013-10-24 09:15:00
5:35 AM,35.6,35.6,100,30.16,10.0,Calm,Calm,-,N/A,,Clear,0,2013-10-24 09:35:00
5:55 AM,35.6,35.6,100,30.17,10.0,Calm,Calm,-,N/A,,Clear,0,2013-10-24 09:55:00
6:15 AM,35.6,33.8,93,30.17,10.0,Calm,Calm,-,N/A,,Clear,0,2013-10-24 10:15:00
6:35 AM,35.6,35.6,100,30.18,10.0,Calm,Calm,-,N/A,,Clear,0,2013-10-24 10:35:00
6:55 AM,35.6,33.8,93,30.18,10.0,Calm,Calm,-,N/A,,Clear,0,2013-10-24 10:55:00
7:15 AM,35.6,33.8,93,30.18,10.0,Calm,Calm,-,N/A,,Clear,0,2013-10-24 11:15:00
7:35 AM,33.8,33.8,100,30.18,10.0,Calm,Calm,-,N/A,,Clear,0,2013-10-24 11:35:00
7:55 AM,33.8,33.8,100,30.19,10.0,Calm,Calm,-,N/A,,Clear,0,2013-10-24 11:55:00
8:15 AM,35.6,33.8,93,30.19,10.0,Calm,Calm,-,N/A,,Clear,0,2013-10-24 12:15:00
8:35 AM,35.6,35.6,100,30.19,10.0,Calm,Calm,-,N/A,,Clear,0,2013-10-24 12:35:00
8:55 AM,37.4,35.6,93,30.19,10.0,Calm,Calm,-,N/A,,Clear,0,2013-10-24 12:55:00
9:15 AM,41.0,37.4,87,30.20,10.0,Calm,Calm,-,N/A,,Clear,0,2013-10-24 13:15:00
9:35 AM,42.8,41.0,93,30.20,10.0,Calm,Calm,-,N/A,,Clear,0,2013-10-24 13:35:00
9:55 AM,46.4,37.4,71,30.21,10.0,Calm,Calm,-,N/A,,Clear,0,2013-10-24 13:55:00
10:15 AM,50.0,37.4,62,30.21,10.0,Calm,Calm,-,N/A,,Clear,0,2013-10-24 14:15:00
10:35 AM,51.8,35.6,54,30.21,10.0,Calm,Calm,-,N/A,,Scattered Clouds,0,2013-10-24 14:35:00
10:55 AM,51.8,35.6,54,30.20,10.0,Calm,Calm,-,N/A,,Scattered Clouds,0,2013-10-24 14:55:00
11:15 AM,53.6,37.4,54,30.20,10.0,Calm,Calm,-,N/A,,Clear,0,2013-10-24 15:15:00
11:35 AM,55.4,37.4,51,30.21,10.0,North,4.6,-,N/A,,Scattered Clouds,360,2013-10-24 15:35:00
11:55 AM,55.4,37.4,51,30.21,10.0,Calm,Calm,-,N/A,,Mostly Cloudy,0,2013-10-24 15:55:00
12:15 PM,55.4,37.4,51,30.20,10.0,Calm,Calm,-,N/A,,Overcast,0,2013-10-24 16:15:00
12:35 PM,57.2,35.6,44,30.19,10.0,Calm,Calm,-,N/A,,Overcast,0,2013-10-24 16:35:00
12:55 PM,59.0,35.6,42,30.19,10.0,WNW,3.5,-,N/A,,Overcast,300,2013-10-24 16:55:00
1:15 PM,59.0,35.6,42,30.19,10.0,West,3.5,-,N/A,,Overcast,270,2013-10-24 17:15:00
1:35 PM,59.0,35.6,42,30.18,10.0,WNW,4.6,-,N/A,,Overcast,300,2013-10-24 17:35:00
1:55 PM,59.0,35.6,42,30.17,10.0,NW,5.8,-,N/A,,Overcast,320,2013-10-24 17:55:00
2:15 PM,60.8,35.6,39,30.17,10.0,NW,5.8,-,N/A,,Overcast,310,2013-10-24 18:15:00
2:35 PM,60.8,33.8,36,30.16,10.0,West,4.6,-,N/A,,Overcast,280,2013-10-24 18:35:00
2:55 PM,60.8,35.6,39,30.15,10.0,Calm,Calm,-,N/A,,Overcast,0,2013-10-24 18:55:00
3:15 PM,60.8,37.4,42,30.15,10.0,WSW,4.6,-,N/A,,Mostly Cloudy,250,2013-10-24 19:15:00
3:35 PM,60.8,37.4,42,30.14,10.0,Calm,Calm,-,N/A,,Mostly Cloudy,0,2013-10-24 19:35:00
3:55 PM,62.6,37.4,39,30.14,10.0,Calm,Calm,-,N/A,,Mostly Cloudy,0,2013-10-24 19:55:00
4:15 PM,62.6,37.4,39,30.14,10.0,West,6.9,-,N/A,,Mostly Cloudy,270,2013-10-24 20:15:00
4:35 PM,60.8,37.4,42,30.13,10.0,SW,4.6,-,N/A,,Overcast,230,2013-10-24 20:35:00
4:55 PM,60.8,35.6,39,30.14,10.0,Calm,Calm,-,N/A,,Overcast,0,2013-10-24 20:55:00
5:15 PM,60.8,35.6,39,30.14,10.0,Calm,Calm,-,N/A,,Mostly Cloudy,0,2013-10-24 21:15:00
5:35 PM,60.8,37.4,42,30.14,10.0,WSW,4.6,-,N/A,,Clear,250,2013-10-24 21:35:00
5:55 PM,60.8,39.2,45,30.14,10.0,West,3.5,-,N/A,,Clear,270,2013-10-24 21:55:00
6:15 PM,59.0,41.0,51,30.15,10.0,Calm,Calm,-,N/A,,Clear,0,2013-10-24 22:15:00
6:55 PM,53.6,44.6,72,30.16,10.0,NNW,3.5,-,N/A,,Unknown,330,2013-10-24 22:55:00
7:15 PM,51.8,44.6,76,30.17,10.0,WNW,4.6,-,N/A,,Clear,300,2013-10-24 23:15:00
7:35 PM,51.8,44.6,76,30.18,10.0,NW,3.5,-,N/A,,Clear,310,2013-10-24 23:35:00
7:55 PM,50.0,44.6,82,30.18,10.0,Calm,Calm,-,N/A,,Clear,0,2013-10-24 23:55:00
8:15 PM,48.2,42.8,82,30.19,10.0,Calm,Calm,-,N/A,,Clear,0,2013-10-25 00:15:00
8:35 PM,46.4,42.8,87,30.19,10.0,Calm,Calm,-,N/A,,Clear,0,2013-10-25 00:35:00
8:55 PM,46.4,42.8,87,30.19,10.0,Calm,Calm,-,N/A,,Clear,0,2013-10-25 00:55:00
9:15 PM,46.4,42.8,87,30.19,10.0,NNW,3.5,-,N/A,,Clear,330,2013-10-25 01:15:00
9:35 PM,50.0,42.8,76,30.20,10.0,NNW,4.6,-,N/A,,Clear,330,2013-10-25 01:35:00
9:55 PM,50.0,42.8,76,30.20,10.0,NNW,4.6,-,N/A,,Clear,330,2013-10-25 01:55:00
10:15 PM,50.0,41.0,71,30.20,10.0,NNW,4.6,-,N/A,,Clear,330,2013-10-25 02:15:00
10:35 PM,50.0,41.0,71,30.20,10.0,NNW,4.6,-,N/A,,Scattered Clouds,330,2013-10-25 02:35:00
10:55 PM,48.2,41.0,76,30.21,10.0,NNW,4.6,-,N/A,,Scattered Clouds,330,2013-10-25 02:55:00
11:15 PM,48.2,41.0,76,30.22,10.0,NNW,5.8,-,N/A,,Clear,330,2013-10-25 03:15:00
11:35 PM,48.2,41.0,76,30.22,10.0,NNW,5.8,-,N/A,,Clear,330,2013-10-25 03:35:00
11:55 PM,48.2,41.0,76,30.22,10.0,NNW,6.9,-,N/A,,Clear,330,2013-10-25 03:55:00